486  
ASUS42 KTBW 280610  
RWRFL  
FLORIDA REGIONAL WEATHER ROUNDUP  
NATIONAL WEATHER SERVICE TAMPA BAY RUSKIN FL  
200 AM EDT THU AUG 28 2014  
 
NOTE: "FAIR" INDICATES FEW OR NO CLOUDS BELOW 12,000 FEET WITH NO  
SIGNIFICANT WEATHER AND/OR S TO VISIBILITY
.  
 
 
FLZ001>010-012>015-112-114-115-280700-  
PANHANDLE FLORIDA  
 
CITY SKY/WX TMP DP RH WIND PRES REMARKS
 
PENSACOLA FAIR 76 70 82 N6 30.00S  
PENSACOLA NAS FAIR 74 72 93 CALM 30.00S  
MILTON NAS FAIR 72 69 90 CALM 30.01S  
CRESTVIEW FAIR 71 68 90 CALM 30.02S  
DUKE FIELD FAIR 72 71 96 CALM 30.01S  
TRI COUNTY LGT RAIN 68 67 96 CALM 30.01S  
PANAMA CITY FAIR 74 70 87 CALM 29.99F  
TYNDALL AFB FAIR 74 71 92 SE2 30.01F  
APALACHICOLA FAIR 73 69 87 CALM 30.00S  
 
STATION/POSITION SKY/WX TEMP WIND PRES WAVE SWELL
 
AIR SEA DIR/SP/G HT/PER HT/PER  
(F) (DEG/KT/KT) (MB) (FT/S) (FT/S)  
30.1N 87.6W 84 85 280/ 2/ 2 1015.9F 2/ 6 2/ 6  
29.2N 88.2W 85 85 110/ 8/ 10 1015.5F  
28.8N 86.0W 85 86 90/ 10/ 12 1015.2F 2/ 5 2/ 5  
PANAMA CITY BEAC 83 85 260/ 6/ 6 1015.7F  
CAPE SAN BLAS NOT AVBL  
TOWER C 82 CALM / 1 1015.7F  
28.5N 84.5W 85 86 80/ 14/ 16 1015.3F 2/ 3  
 

 
FLZ011-016>038-118-127-128-134-139-239-280700-  
NORTH FLORIDA  
 
CITY SKY/WX TMP DP RH WIND PRES REMARKS
 
MARIANNA FAIR 74 71 91 S5 30.00S  
TALLAHASSEE FAIR 71 65 81 CALM 30.01S  
PERRY FAIR 70 66 88 SE5 30.02S  
CROSS CITY N/A 70 67 90 CALM 30.01F  
LAKE CITY FAIR 66 64 94 CALM 30.02F  
GAINESVILLE FAIR 68 66 93 CALM 30.02S  
MAYPORT NAS FAIR 75 69 81 S3 30.00F  
JACKSONVILLE FAIR 66 65 96 CALM 30.00F  
JAX NAS FAIR 79 67 66 CALM 30.01F  
JAX CRAIG FAIR 71 67 87 CALM 30.01S  
JAX CECIL FAIR 64 64 100 CALM 30.01F  
FERNANDINA BEA FAIR 73 64 73 CALM 30.00S  
ST AUGUSTINE CLOUDY 76 70 82 CALM 30.01F  
 
STATION/POSITION SKY/WX TEMP WIND PRES WAVE SWELL
 
AIR SEA DIR/SP/G HT/PER HT/PER  
(F) (DEG/KT/KT) (MB) (FT/S) (FT/S)  
SHELL POINT 78 310/ 3/ 4 N/A  
KEATON BEACH 74 110/ 6/ 7 1016.4S  
CEDAR KEY 80 110/ 13/ 14 1016.9R  
FERNANDINA 77 83 150/ 3/ 4 1015.5F  
30.7N 81.3W 83 N/A 4/11 2/11  
MAYPORT 77 83 170/ 2/ 3 N/A  
31.4N 80.9W 80 84 130/ 6/ 8 1016.2S 4/11 3/11  
ST AUGUSTINE 80 120/ 5/ 5 1016.8F  
 

 
FLZ040-043>046-052-053-057-058-063-144-280700-  
INTERIOR CENTRAL FLORIDA  
 
CITY SKY/WX TMP DP RH WIND PRES REMARKS
 
OCALA FAIR 70 66 88 CALM 30.02S  
LEESBURG FAIR 75 70 84 E3 30.02F  
SANFORD FAIR 76 70 82 CALM 30.01F  
ORLANDO EXEC FAIR 77 71 82 CALM 30.01F  
ORLANDO INTL FAIR 74 71 91 CALM 30.01F  
WINTER HAVEN MOCLDY 77 72 84 E6 30.02F  
LAKELAND MOCLDY 77 72 83 E6 30.01F  
BARTOW MOCLDY 75 75 100 E3 30.02F  
OKEECHOBEE N/A 72 72 100 MISG N/A  
 

 
FLZ041-047-054-059-064-141-147-280700-  
EAST CENTRAL FLORIDA  
 
CITY SKY/WX TMP DP RH WIND PRES REMARKS
 
DAYTONA BEACH FAIR 73 70 90 CALM 30.01F  
DELAND FAIR 72 68 88 CALM 30.02F  
JFK SPACE CTR FAIR 74 73 96 CALM 30.00F  
CAPE CANAVERAL FAIR 74 71 92 CALM 29.99F  
PATRICK AFB FAIR 81 76 86 SE2 30.00F  
MELBOURNE FAIR 79 75 87 CALM 30.00F  
VERO BEACH FAIR 73 71 93 CALM 29.99F  
FT PIERCE FAIR 76 71 85 CALM 29.99F  
STUART FAIR 77 72 83 CALM 29.99F  
 
STATION/POSITION SKY/WX TEMP WIND PRES WAVE SWELL
 
AIR SEA DIR/SP/G HT/PER HT/PER  
(F) (DEG/KT/KT) (MB) (FT/S) (FT/S)  
28.5N 80.2W 82 83 100/ 6/ 10 1016.1R  
28.9N 78.5W 82 83 150/ 4/ 6 1016.2F 10/11 10/11  
TRIDENT PIER 77 83 20/ 2/ 2 1015.5F  
28.4N 80.5W 82 N/A 3/11 2/11  
27.6N 80.2W 83 N/A 4/10 2/11  
 

 
FLZ050-056-061-142-242-148-248-149-249-151-251-155-255-  
160-260-280700-  
WEST CENTRAL FLORIDA  
 
CITY SKY/WX TMP DP RH WIND PRES REMARKS
 
CRYSTAL RIVER MOCLDY 73 68 83 CALM 30.01F  
INVERNESS FAIR 72 59 64 CALM 30.02S  
BROOKSVILLE FAIR 74 70 87 CALM 30.02S  
ZEPHYRHILLS CLOUDY 73 72 94 CALM 30.02F  
CLEARWATER CLOUDY 81 72 74 E8 30.00S  
TAMPA INTL CLOUDY 80 70 71 VRB6 30.01S  
TAMPA EXEC CLOUDY 79 72 78 E3 30.01S  
MACDILL AFB FAIR 79 75 87 SE12 30.00S  
ST PETERSBURG MOCLDY 81 74 79 SE13 29.99S  
SARASOTA FAIR 79 73 82 E9 29.98S  
VENICE N/A N/A N/A N/A MISG N/A  
 
STATION/POSITION SKY/WX TEMP WIND PRES WAVE SWELL
 
AIR SEA DIR/SP/G HT/PER HT/PER  
(F) (DEG/KT/KT) (MB) (FT/S) (FT/S)  
CEDAR KEY 80 110/ 13/ 14 1016.9R  
28.5N 84.5W 85 86 80/ 14/ 16 1015.3F 2/ 3  
27.3N 84.3W 87 N/A 2/ 4  
CLEARWATER BEACH 81 87 80/ 6/ 10 1015.6S  
MIDDLE TAMPA BAY 80 130/ 14/ 17 1015.8F  
VENICE 79 87 90/ 9/ 10 1015.0F  
 

 
FLZ066-069-070-075>078-162-262-165-265-280700-  
SOUTHWEST FLORIDA AND KEYS  
 
CITY SKY/WX TMP DP RH WIND PRES REMARKS
 
PUNTA GORDA FAIR 77 73 87 NE6 30.00F  
FT MYERS FAIR 77 74 90 E7 29.97F  
SOUTHWEST INTL FAIR 77 73 87 E7 29.98F  
NAPLES CLOUDY 82 72 71 E8 29.96F  
MARCO ISLAND FAIR 79 75 89 E6 29.96F  
MARATHON FAIR 83 76 79 SW5 29.96F  
KEY WEST NAS FAIR 82 75 79 S10 29.95F  
KEY WEST INTL MOCLDY 83 76 79 S12 29.95F  
 
STATION/POSITION SKY/WX TEMP WIND PRES WAVE SWELL
 
AIR SEA DIR/SP/G HT/PER HT/PER  
(F) (DEG/KT/KT) (MB) (FT/S) (FT/S)  
VENICE 79 87 90/ 9/ 10 1015.0F  
NAPLES 82 130/ 5/ 7 1015.4F  
DRY TORTUGAS 84 160/ 12/ 14 1013.3F  
NW FL BAY 80 200/ 17/ 24 1015.7R  
SAND KEY 83 170/ 12/ 15 1014.3F  
SOMBRERO KEY 83 180/ 8/ 10 1015.3S  
LONG KEY 83 87 230/ 8/ 9 1015.8F  
MOLASSES REEF 80 87 160/ 5/ 6 1014.9F  
 

 
FLZ067-068-071>074-168-172>174-280700-  
SOUTHEAST FLORIDA  
 
CITY SKY/WX TMP DP RH WIND PRES REMARKS
 
W PALM BEACH FAIR 82 73 74 E7 29.97F  
FT LAUDER-EXEC CLOUDY 84 75 74 E8 29.98F  
FT LAUDERDALE MOCLDY 85 74 69 SE10 29.98S  
POMPANO BEACH MOCLDY 85 72 65 E7 29.98F  
PEMBROKE PINES MOCLDY 83 75 77 E5 29.99F  
OPA LOCKA MOCLDY 83 73 72 SE5 29.98F  
MIAMI MOCLDY 84 74 71 E7 29.98F  
WEST KENDALL MOCLDY 82 74 76 S8 29.98F  
HOMESTEAD LGT RAIN 77 75 91 SE8 29.97F  
 
STATION/POSITION SKY/WX TEMP WIND PRES WAVE SWELL
 
AIR SEA DIR/SP/G HT/PER HT/PER  
(F) (DEG/KT/KT) (MB) (FT/S) (FT/S)  
PORT EVERGLADES 85 100/ 4/ 8 1015.2  
VIRGINIA KEY 85 87 130/ 9/ 11 N/A  
LAKE WORTH 83 87 110/ 8/ 11 1015.0F  
FOWEY ROCKS 83 87 150/ 10/ 11 1015.1F  
SETTLEMENT POINT 82 140/ 5/ 6 1016.0F  
 

 
 
CLICK HERE TO GO TO PREVIOUS BULLETINS.

The Nexlab FL Page Main Text Page